SCP
0 0 0 0 0 0 0 0 0 0 0 0 0 0 0 0 0 0 0 0 0 0 1 1 1 1 1 1 1 0 0 0
0 0 0 0 0 0 0 0 0 0 0 0 0 0 0 0 0 0 0 0 0 0 0 1 1 1 1 1 0 0 0 0
0 0 0 0 0 0 -0 -0 0 0 0 0 0 0 0 0 0 0 0 0 0 0 1 1 1 1 1 0 0 0 0 0
0 0 0 0 0 0 -0 -0 0 0 0 0 0 0 0 0 0 0 0 0 0 0 1 0 1 0 0 0 0 0 0 0
0 0 0 0 0 0 0 -0 0 0 0 0 0 0 0 0 0 0 0 0 0 0 0 0 0 0 0 0 0 0 0 0
0 0 0 0 0 0 0 0 0 0 0 0 0 0 0 0 0 0 0 0 0 0 0 0 0 0 0 0 0 0 0 0
0 0 0 0 0 0 0 0 0 0 0 0 0 0 0 0 0 0 0 0 0 0 0 0 0 0 0 0 0 0 0 0
0 0 0 0 0 0 0 0 0 0 0 0 0 0 0 0 0 0 0 0 0 0 0 0 0 0 0 0 0 0 0 0
0 0 0 -0 0 0 -0 -0 0 0 0 0 0 0 0 0 0 0 0 0 0 0 0 0 0 0 0 0 0 0 0 0
-0 0 0 0 0 0 0 -0 0 0 0 0 0 0 0 0 0 0 0 0 0 0 0 0 0 0 0 0 0 0 0 0
0 0 0 0 0 0 0 0 0 0 0 0 0 0 0 0 0 0 0 0 0 0 0 0 0 0 0 0 0 0 0 0
0 0 0 0 0 0 0 0 0 0 0 0 0 0 0 0 0 0 0 0 0 0 0 0 0 0 0 0 0 0 0 0
0 0 0 0 0 0 -0 0 0 0 0 0 0 0 0 0 0 0 0 0 0 0 0 0 0 0 0 0 0 0 0 0
0 0 0 0 0 0 0 0 0 0 0 0 0 0 0 0 0 0 0 0 0 0 0 0 0 0 0 0 0 0 0 0
0 0 0 0 0 0 0 0 0 0 0 0 0 0 0 0 0 0 0 0 0 0 0 0 0 0 0 0 0 0 0 0
0 0 0 0 0 0 0 0 0 0 0 0 0 0 0 0 0 0 0 0 0 0 0 0 0 0 0 0 0 0 0 0
0 0 0 0 0 0 0 0 0 0 0 0 0 0 0 0 0 0 0 0 0 0 0 0 0 0 0 0 0 0 0 0
0 0 0 -0 0 0 0 0 0 0 0 0 0 0 0 0 0 0 0 0 0 0 0 0 0 0 0 0 0 0 0 0
0 -0 -0 -0 -0 0 0 0 0 0 0 0 0 0 0 0 0 0 0 0 0 0 0 0 0 0 -0 0 0 0 0 0
-0 0 0 0 -0 0 0 0 0 0 0 0 0 0 0 0 0 0 0 0 0 0 -0 0 0 -0 -0 -0 0 0 0 0
Wind_Speed_500mb
9 12 17 10 8 10 6 12 13 8 8 2 1 8 6 8 9 9 12 14 20 29 25 28 35 38 42 43 45 46 50 53
18 17 3 14 17 14 11 10 16 13 9 4 9 8 9 9 9 11 15 19 25 29 29 34 40 43 42 46 48 50 50 54
17 16 9 15 20 18 17 13 9 11 6 5 7 13 11 9 12 14 18 22 24 36 38 38 43 43 45 48 51 53 56 57
24 7 7 15 15 15 17 14 6 10 10 8 10 12 11 12 12 16 18 28 26 29 35 39 44 46 51 51 52 57 61 65
24 22 18 8 13 17 15 16 16 7 11 4 13 17 17 17 19 20 24 21 21 26 31 39 42 45 46 50 56 63 67 64
25 23 21 7 8 12 17 17 5 13 11 10 16 16 19 12 10 9 13 18 24 29 27 29 28 42 45 50 52 57 60 57
24 26 24 12 22 8 11 20 15 18 18 10 14 12 15 13 11 12 18 23 26 25 25 29 31 33 42 44 45 44 37 36
17 24 28 37 22 30 15 18 23 21 17 21 17 17 17 16 14 16 19 23 24 23 31 36 27 29 32 31 36 29 27 27
31 32 38 42 30 24 25 26 22 21 24 24 22 23 21 17 14 14 17 20 22 24 33 34 25 28 24 32 24 21 22 21
36 28 26 17 17 20 29 29 7 15 15 27 30 27 21 16 11 12 18 20 19 22 32 31 26 20 26 24 20 20 18 15
32 27 20 10 19 18 24 19 21 18 23 31 29 25 21 14 8 10 16 18 18 25 26 24 21 18 20 20 16 17 20 14
28 26 14 16 9 9 17 8 22 25 29 29 29 27 20 14 8 9 13 14 18 20 20 18 17 19 19 18 16 16 15 13
29 24 12 12 19 19 21 11 22 30 29 30 30 26 21 15 8 6 9 12 18 18 17 18 19 18 17 16 18 15 13 15
25 18 12 12 18 18 20 19 30 31 33 33 31 29 22 15 9 4 5 11 17 15 16 20 20 20 17 17 19 17 17 15
20 21 10 22 26 15 21 24 32 31 37 36 33 30 25 19 12 2 4 8 13 14 16 21 18 18 20 20 18 15 12 14
25 18 19 24 28 29 33 33 31 33 37 39 38 35 29 23 14 4 2 7 12 13 19 23 20 23 22 19 17 14 14 20
24 14 20 31 29 31 37 42 32 35 37 42 40 33 30 25 16 7 2 4 9 12 17 21 16 21 24 22 17 11 13 19
23 20 17 30 34 37 33 35 32 32 36 40 38 38 34 28 19 10 4 2 5 10 16 21 16 22 20 17 17 23 28 17
25 24 24 31 35 24 17 20 26 27 29 36 44 45 39 33 23 14 7 5 1 8 15 19 23 20 23 20 19 21 34 47
27 25 23 7 29 27 21 22 22 25 29 34 41 44 41 36 27 19 12 10 3 6 14 16 23 19 22 15 9 13 19 29
Wind_Direction_500mb
251 256 265 330 358 317 347 188 205 214 257 283 151 179 178 197 194 233 262 273 283 299 275 268 273 276 278 281 278 276 277 278
253 253 57 296 321 318 278 212 224 252 244 187 186 166 196 205 240 260 277 277 281 277 275 277 276 277 278 278 278 276 275 277
251 262 287 286 300 294 261 239 215 227 273 279 240 216 220 239 275 275 279 280 287 288 284 274 278 279 281 278 276 275 275 276
255 251 278 309 314 278 255 253 153 232 265 279 214 206 229 256 273 281 283 291 291 290 287 277 277 278 280 280 279 279 279 280
290 280 285 1 329 262 276 261 234 245 258 317 219 216 249 266 282 286 296 300 295 293 286 291 285 280 280 279 280 282 283 281
260 275 298 357 290 283 259 273 142 195 255 256 213 245 253 247 247 272 301 302 299 299 292 287 286 288 286 287 287 285 282 277
267 278 291 291 280 215 256 242 225 217 249 244 220 255 205 222 255 284 302 305 302 299 290 295 294 291 296 294 292 292 283 280
283 291 286 292 278 291 230 225 232 235 233 241 239 202 215 237 264 288 303 304 300 294 304 307 301 294 301 298 302 302 286 274
273 274 292 288 285 264 254 262 252 247 229 218 209 208 221 239 259 284 302 313 301 301 313 310 297 295 296 293 301 304 309 298
271 291 291 277 268 249 244 269 312 235 229 207 209 211 218 228 257 294 309 315 311 309 313 309 309 301 289 310 295 311 296 300
270 271 255 257 245 270 268 283 246 236 213 213 212 210 210 212 248 301 321 316 320 316 315 315 315 296 299 301 302 296 294 286
263 253 218 236 237 246 292 253 235 224 221 217 210 207 206 212 237 297 318 321 321 322 314 310 315 311 313 305 307 309 303 281
237 223 229 240 245 255 286 232 240 233 226 216 209 206 209 214 221 297 318 320 332 330 316 316 321 313 307 303 312 295 295 286
194 203 172 219 272 266 288 229 237 232 226 214 209 205 206 208 209 287 319 318 342 330 328 322 313 316 308 293 313 306 286 268
239 200 195 216 279 286 296 261 262 243 227 218 209 203 204 204 208 242 310 327 344 334 341 349 329 327 320 325 324 317 308 288
257 191 228 256 259 272 278 261 261 255 235 222 212 208 203 199 197 194 291 323 354 336 346 351 347 344 336 340 330 332 314 307
255 272 263 276 286 287 283 276 259 257 230 221 213 205 198 194 193 191 269 298 315 330 347 356 359 353 359 360 6 2 347 330
254 267 281 288 285 293 291 271 264 248 227 217 206 197 194 192 190 186 209 237 309 335 349 7 355 351 8 19 42 48 41 32
259 293 270 264 274 291 288 248 250 244 232 214 205 196 192 190 188 178 188 195 301 356 27 30 32 5 35 41 63 74 63 54
258 268 281 346 293 294 273 268 234 232 222 212 201 196 190 185 184 177 175 175 123 34 62 38 45 27 27 39 43 60 62 52
Wind_Speed_850mb
9 12 17 10 8 10 6 12 13 8 8 2 1 8 6 8 9 9 12 14 20 29 25 28 35 38 42 43 45 46 50 53
18 17 3 14 17 14 11 10 16 13 9 4 9 8 9 9 9 11 15 19 25 29 29 34 40 43 42 46 48 50 50 54
17 16 9 15 20 18 17 13 9 11 6 5 7 13 11 9 12 14 18 22 24 36 38 38 43 43 45 48 51 53 56 57
24 7 7 15 15 15 17 14 6 10 10 8 10 12 11 12 12 16 18 28 26 29 35 39 44 46 51 51 52 57 61 65
24 22 18 8 13 17 15 16 16 7 11 4 13 17 17 17 19 20 24 21 21 26 31 39 42 45 46 50 56 63 67 64
25 23 21 7 8 12 17 17 5 13 11 10 16 16 19 12 10 9 13 18 24 29 27 29 28 42 45 50 52 57 60 57
24 26 24 12 22 8 11 20 15 18 18 10 14 12 15 13 11 12 18 23 26 25 25 29 31 33 42 44 45 44 37 36
17 24 28 37 22 30 15 18 23 21 17 21 17 17 17 16 14 16 19 23 24 23 31 36 27 29 32 31 36 29 27 27
31 32 38 42 30 24 25 26 22 21 24 24 22 23 21 17 14 14 17 20 22 24 33 34 25 28 24 32 24 21 22 21
36 28 26 17 17 20 29 29 7 15 15 27 30 27 21 16 11 12 18 20 19 22 32 31 26 20 26 24 20 20 18 15
32 27 20 10 19 18 24 19 21 18 23 31 29 25 21 14 8 10 16 18 18 25 26 24 21 18 20 20 16 17 20 14
28 26 14 16 9 9 17 8 22 25 29 29 29 27 20 14 8 9 13 14 18 20 20 18 17 19 19 18 16 16 15 13
29 24 12 12 19 19 21 11 22 30 29 30 30 26 21 15 8 6 9 12 18 18 17 18 19 18 17 16 18 15 13 15
25 18 12 12 18 18 20 19 30 31 33 33 31 29 22 15 9 4 5 11 17 15 16 20 20 20 17 17 19 17 17 15
20 21 10 22 26 15 21 24 32 31 37 36 33 30 25 19 12 2 4 8 13 14 16 21 18 18 20 20 18 15 12 14
25 18 19 24 28 29 33 33 31 33 37 39 38 35 29 23 14 4 2 7 12 13 19 23 20 23 22 19 17 14 14 20
24 14 20 31 29 31 37 42 32 35 37 42 40 33 30 25 16 7 2 4 9 12 17 21 16 21 24 22 17 11 13 19
23 20 17 30 34 37 33 35 32 32 36 40 38 38 34 28 19 10 4 2 5 10 16 21 16 22 20 17 17 23 28 17
25 24 24 31 35 24 17 20 26 27 29 36 44 45 39 33 23 14 7 5 1 8 15 19 23 20 23 20 19 21 34 47
27 25 23 7 29 27 21 22 22 25 29 34 41 44 41 36 27 19 12 10 3 6 14 16 23 19 22 15 9 13 19 29
Wind_Direction_850mb
251 256 265 330 358 317 347 188 205 214 257 283 151 179 178 197 194 233 262 273 283 299 275 268 273 276 278 281 278 276 277 278
253 253 57 296 321 318 278 212 224 252 244 187 186 166 196 205 240 260 277 277 281 277 275 277 276 277 278 278 278 276 275 277
251 262 287 286 300 294 261 239 215 227 273 279 240 216 220 239 275 275 279 280 287 288 284 274 278 279 281 278 276 275 275 276
255 251 278 309 314 278 255 253 153 232 265 279 214 206 229 256 273 281 283 291 291 290 287 277 277 278 280 280 279 279 279 280
290 280 285 1 329 262 276 261 234 245 258 317 219 216 249 266 282 286 296 300 295 293 286 291 285 280 280 279 280 282 283 281
260 275 298 357 290 283 259 273 142 195 255 256 213 245 253 247 247 272 301 302 299 299 292 287 286 288 286 287 287 285 282 277
267 278 291 291 280 215 256 242 225 217 249 244 220 255 205 222 255 284 302 305 302 299 290 295 294 291 296 294 292 292 283 280
283 291 286 292 278 291 230 225 232 235 233 241 239 202 215 237 264 288 303 304 300 294 304 307 301 294 301 298 302 302 286 274
273 274 292 288 285 264 254 262 252 247 229 218 209 208 221 239 259 284 302 313 301 301 313 310 297 295 296 293 301 304 309 298
271 291 291 277 268 249 244 269 312 235 229 207 209 211 218 228 257 294 309 315 311 309 313 309 309 301 289 310 295 311 296 300
270 271 255 257 245 270 268 283 246 236 213 213 212 210 210 212 248 301 321 316 320 316 315 315 315 296 299 301 302 296 294 286
263 253 218 236 237 246 292 253 235 224 221 217 210 207 206 212 237 297 318 321 321 322 314 310 315 311 313 305 307 309 303 281
237 223 229 240 245 255 286 232 240 233 226 216 209 206 209 214 221 297 318 320 332 330 316 316 321 313 307 303 312 295 295 286
194 203 172 219 272 266 288 229 237 232 226 214 209 205 206 208 209 287 319 318 342 330 328 322 313 316 308 293 313 306 286 268
239 200 195 216 279 286 296 261 262 243 227 218 209 203 204 204 208 242 310 327 344 334 341 349 329 327 320 325 324 317 308 288
257 191 228 256 259 272 278 261 261 255 235 222 212 208 203 199 197 194 291 323 354 336 346 351 347 344 336 340 330 332 314 307
255 272 263 276 286 287 283 276 259 257 230 221 213 205 198 194 193 191 269 298 315 330 347 356 359 353 359 360 6 2 347 330
254 267 281 288 285 293 291 271 264 248 227 217 206 197 194 192 190 186 209 237 309 335 349 7 355 351 8 19 42 48 41 32
259 293 270 264 274 291 288 248 250 244 232 214 205 196 192 190 188 178 188 195 301 356 27 30 32 5 35 41 63 74 63 54
258 268 281 346 293 294 273 268 234 232 222 212 201 196 190 185 184 177 175 175 123 34 62 38 45 27 27 39 43 60 62 52